Santa Maria, CA

2:19 PM PDT on April 21, 2018 (GMT -0700)
Santa Maria Public Airport / Captain G. Allan Hancock Field

Weather History for KSMX - October, 2011

Change the Weather History Date:

Sunday, October 23, 2011

  Actual Average Record
Temperature  
Mean Temperature 66 °F 60 °F  
Max Temperature 78 °F 73 °F 102 °F (2017)
Min Temperature 53 °F 48 °F 33 °F (1918)
Degree Days  
Heating Degree Days 0 5  
Month to date heating degree days 55 100  
Since 1 July heating degree days 210 317  
Cooling Degree Days 1 0  
Month to date cooling degree days 47 21  
Year to date cooling degree days 106 103  
Growing Degree Days 16 (Base 50)    
Moisture  
Dew Point 53 °F    
Average Humidity 68    
Maximum Humidity 93    
Minimum Humidity 43    
Precipitation  
Precipitation 0.00 in 0.03 in 0.19 in (1973)
Month to date precipitation 0.75 0.35  
Year to date precipitation 11.81 10.25  
Since 1 July precipitation 0.84  
Sea Level Pressure  
Sea Level Pressure 29.96 in    
Wind  
Wind Speed 4 mph (NNW)    
Max Wind Speed 12 mph    
Max Gust Speed 15 mph    
Visibility 6 miles    
Events Fog    
T = Trace of Precipitation, MM = Missing Value Source: NWS Daily Summary

Daily Weather History Graph

Daily Weather History Graph

Search for Another Location

Airport or City:

Astronomy

Oct. 23, 2011 Rise Set
Actual Time 7:14 AM PDT 6:17 PM PDT
Civil Twilight 6:48 AM PDT 6:43 PM PDT
Nautical Twilight 6:19 AM PDT 7:12 PM PDT
Astronomical Twilight 5:49 AM PDT 7:42 PM PDT
Moon 3:35 AM PDT (10/23) 4:05 PM PDT (10/23)
Length of Visible Light 11h 54m
Length of Day
11h 03m
Waning Crescent, 13% of the Moon is Illuminated
Oct 23
Waning Crescent
Oct 26
New
Nov 2
First Quarter
Nov 10
Full
Nov 18
Last Quarter

Hourly Weather History & Observations

Time (PDT) Temp. Dew Point Humidity Pressure Visibility Wind Dir Wind Speed Gust Speed Precip Events Conditions
12:51 AM 57.9 °F 48.0 °F 70% 29.96 in 10.0 mi SE 3.5 mph - N/A   Clear
1:51 AM 57.9 °F 48.0 °F 70% 29.96 in 10.0 mi SSE 3.5 mph - N/A   Clear
2:51 AM 57.0 °F 46.9 °F 69% 29.95 in 10.0 mi SE 3.5 mph - N/A   Clear
3:51 AM 55.0 °F 46.9 °F 74% 29.94 in 10.0 mi East 3.5 mph - N/A   Clear
4:51 AM 55.0 °F 46.9 °F 74% 29.93 in 10.0 mi South 3.5 mph - N/A   Clear
5:51 AM 54.0 °F 46.9 °F 77% 29.93 in 10.0 mi Calm Calm - N/A   Clear
6:51 AM 54.0 °F 46.0 °F 75% 29.94 in 10.0 mi Calm Calm - N/A   Clear
7:51 AM 55.0 °F 46.9 °F 74% 29.96 in 10.0 mi Calm Calm - N/A   Clear
8:51 AM 61.0 °F 48.0 °F 62% 29.97 in 10.0 mi Calm Calm - N/A   Clear
9:51 AM 66.9 °F 50.0 °F 54% 29.97 in 10.0 mi Calm Calm - N/A   Clear
10:51 AM 73.9 °F 50.0 °F 43% 29.97 in 10.0 mi West 4.6 mph - N/A   Clear
11:51 AM 77.0 °F 54.0 °F 45% 29.96 in 10.0 mi NW 6.9 mph - N/A   Clear
12:51 PM 75.9 °F 54.0 °F 46% 29.95 in 10.0 mi NW 9.2 mph - N/A   Clear
1:51 PM 75.0 °F 52.0 °F 44% 29.94 in 10.0 mi NNW 10.4 mph - N/A   Clear
2:51 PM 73.9 °F 54.0 °F 50% 29.93 in 10.0 mi NNW 9.2 mph - N/A   Clear
3:51 PM 72.0 °F 55.9 °F 57% 29.93 in 10.0 mi NNW 8.1 mph - N/A   Clear
4:51 PM 66.9 °F 55.9 °F 68% 29.93 in 9.0 mi NNW 10.4 mph - N/A   Clear
5:51 PM 62.1 °F 55.0 °F 78% 29.95 in 5.0 mi NW 6.9 mph - N/A   Haze
6:02 PM - - N/A% - - North - - N/A   Unknown
6:14 PM 57.2 °F 55.4 °F 94% 29.95 in 2.5 mi NW 4.6 mph - N/A   Clear
6:18 PM 57.2 °F 55.4 °F 94% 29.95 in 2.5 mi NW 4.6 mph - N/A   Mostly Cloudy
6:40 PM 57.2 °F 55.4 °F 94% 29.96 in 3.0 mi NW 5.8 mph - N/A   Mostly Cloudy
6:51 PM 57.9 °F 55.9 °F 93% 29.97 in 3.0 mi NNW 4.6 mph - N/A   Mostly Cloudy
7:12 PM 59.0 °F 55.4 °F 88% 29.97 in 2.5 mi North 3.5 mph - N/A   Overcast
7:23 PM 59.0 °F 55.4 °F 88% 29.97 in 3.0 mi Calm Calm - N/A   Overcast
7:51 PM 59.0 °F 55.9 °F 90% 29.99 in 4.0 mi Calm Calm - N/A   Overcast
8:51 PM 57.9 °F 55.0 °F 90% 29.99 in 2.5 mi Calm Calm - N/A   Overcast
9:51 PM 57.9 °F 55.0 °F 90% 29.99 in 2.0 mi East 3.5 mph - N/A   Overcast
9:59 PM 57.2 °F 55.4 °F 94% 29.98 in 1.8 mi East 4.6 mph - N/A   Overcast
10:11 PM 57.2 °F 55.4 °F 94% 29.98 in 0.8 mi East 3.5 mph - N/A   Overcast
10:51 PM 57.0 °F 55.9 °F 96% 29.98 in 0.8 mi Calm Calm - N/A   Mist
11:26 PM 57.2 °F 55.4 °F 94% 29.98 in 0.2 mi Calm Calm - N/A Fog Fog
11:35 PM 55.4 °F 53.6 °F 94% 29.98 in 1.0 mi Calm Calm - N/A   Mist
11:37 PM 55.4 °F 53.6 °F 94% 29.98 in 2.0 mi Calm Calm - N/A   Overcast
11:49 PM 55.4 °F 53.6 °F 94% 29.97 in 1.2 mi Calm Calm - N/A   Overcast
11:51 PM 55.9 °F 54.0 °F 93% 29.98 in 0.8 mi Calm Calm - N/A   Overcast
11:55 PM 55.4 °F 53.6 °F 94% 29.97 in 0.2 mi Calm Calm - N/A Fog Fog